SKY594 ROAH-RJBE

Flight info

Callsign SKY594
Flight time 1h 32m
Altitude 35000
Route YUGAF LUKRA Y53 MADOG B597 SUC V53 KTE
Aircraft B738/M-SDE2E3FGHIRWXY/LB1

Departure

Time 2026-04-24 12:58
Airport Naha International Airport (ROAH)

Arrival

Time 2026-04-24 14:30
Airport Kobe Airport (RJBE)
Time Latitude Longitude Altitude Speed Heading
2026-04-24 12:37 26.20555 127.64933 20 ft 0 kts 148°
2026-04-24 12:49 26.20555 127.64932 20 ft 0 kts 148°
2026-04-24 12:49 26.20566 127.64925 20 ft 3 kts 153°
2026-04-24 12:49 26.20585 127.64916 22 ft 3 kts 164°
2026-04-24 12:49 26.20604 127.64912 21 ft 3 kts 182°
2026-04-24 12:50 26.20623 127.64915 21 ft 3 kts 211°
2026-04-24 12:50 26.20631 127.64921 22 ft 3 kts 237°
2026-04-24 12:50 26.20636 127.64934 22 ft 1 kts 267°
2026-04-24 12:50 26.20637 127.64939 23 ft 0 kts 267°
2026-04-24 12:53 26.20636 127.64934 20 ft 4 kts 267°
2026-04-24 12:53 26.20634 127.64869 19 ft 13 kts 266°
2026-04-24 12:53 26.20582 127.64755 16 ft 21 kts 200°
2026-04-24 12:53 26.20431 127.64754 17 ft 22 kts 177°
2026-04-24 12:54 26.20293 127.64761 16 ft 21 kts 177°
2026-04-24 12:54 26.20198 127.64766 16 ft 21 kts 177°
2026-04-24 12:54 26.20057 127.64773 16 ft 20 kts 177°
2026-04-24 12:54 26.19920 127.64780 16 ft 19 kts 177°
2026-04-24 12:55 26.19788 127.64787 16 ft 19 kts 177°
2026-04-24 12:55 26.19660 127.64790 16 ft 18 kts 177°
2026-04-24 12:55 26.19536 127.64796 16 ft 17 kts 178°
2026-04-24 12:55 26.19409 127.64801 16 ft 20 kts 176°
2026-04-24 12:56 26.19243 127.64809 16 ft 28 kts 178°
2026-04-24 12:56 26.19028 127.64821 16 ft 34 kts 176°
2026-04-24 12:56 26.18778 127.64831 17 ft 36 kts 179°
2026-04-24 12:56 26.18595 127.64840 17 ft 15 kts 181°
2026-04-24 12:57 26.18515 127.64785 15 ft 15 kts 253°
2026-04-24 12:57 26.18515 127.64674 15 ft 14 kts 288°
2026-04-24 12:57 26.18597 127.64634 16 ft 14 kts
2026-04-24 12:57 26.18848 127.64623 18 ft 77 kts 357°
2026-04-24 12:58 26.19670 127.64588 19 ft 156 kts 359°
2026-04-24 12:58 26.20880 127.64539 580 ft 181 kts 356°
2026-04-24 12:58 26.22150 127.64281 1581 ft 191 kts 336°
2026-04-24 12:58 26.22915 127.63708 1913 ft 209 kts 322°
2026-04-24 12:59 26.24142 127.62667 2195 ft 235 kts 327°
2026-04-24 12:59 26.25589 127.61631 2636 ft 254 kts 330°
2026-04-24 12:59 26.27152 127.60662 3549 ft 258 kts 332°
2026-04-24 12:59 26.29289 127.59500 4914 ft 258 kts 331°
2026-04-24 13:00 26.30933 127.58669 5826 ft 261 kts 332°
2026-04-24 13:00 26.32058 127.58117 6447 ft 263 kts 332°
2026-04-24 13:00 26.33758 127.57310 7240 ft 268 kts 332°
2026-04-24 13:00 26.35498 127.56508 8079 ft 273 kts 332°
2026-04-24 13:01 26.37273 127.55703 8904 ft 278 kts 332°
2026-04-24 13:01 26.39080 127.54891 9746 ft 282 kts 332°
2026-04-24 13:01 26.40919 127.54065 10428 ft 291 kts 332°
2026-04-24 13:01 26.42916 127.53267 10633 ft 323 kts 343°
2026-04-24 13:02 26.46048 127.53658 11124 ft 361 kts 14°
2026-04-24 13:02 26.47657 127.54301 11570 ft 366 kts 16°
2026-04-24 13:02 26.50052 127.55314 12267 ft 370 kts 17°
2026-04-24 13:02 26.52471 127.56357 12975 ft 375 kts 17°
2026-04-24 13:03 26.54885 127.57394 13647 ft 379 kts 17°
2026-04-24 13:03 26.57399 127.58464 14266 ft 384 kts 17°
2026-04-24 13:03 26.59875 127.59508 14852 ft 388 kts 16°
2026-04-24 13:03 26.62409 127.60569 15457 ft 392 kts 16°
2026-04-24 13:04 26.64974 127.61639 16102 ft 394 kts 16°
2026-04-24 13:04 26.67532 127.62705 16866 ft 394 kts 16°
2026-04-24 13:04 26.70125 127.63784 17467 ft 398 kts 15°
2026-04-24 13:04 26.72744 127.64872 18041 ft 404 kts 15°
2026-04-24 13:05 26.75389 127.65972 18580 ft 408 kts 15°
2026-04-24 13:05 26.78073 127.67088 19057 ft 414 kts 15°
2026-04-24 13:05 26.80787 127.68217 19502 ft 419 kts 15°
2026-04-24 13:05 26.83539 127.69363 19970 ft 424 kts 15°
2026-04-24 13:06 26.86316 127.70521 20442 ft 429 kts 15°
2026-04-24 13:06 26.89128 127.71695 20894 ft 433 kts 15°
2026-04-24 13:06 26.91971 127.72882 21337 ft 438 kts 15°
2026-04-24 13:06 26.94839 127.74081 21788 ft 443 kts 15°
2026-04-24 13:07 26.97739 127.75292 22219 ft 447 kts 15°
2026-04-24 13:07 27.00632 127.76503 22636 ft 452 kts 15°
2026-04-24 13:07 27.03587 127.77739 23056 ft 456 kts 15°
2026-04-24 13:07 27.06573 127.78990 23464 ft 460 kts 15°
2026-04-24 13:08 27.09588 127.80253 23808 ft 465 kts 15°
2026-04-24 13:08 27.12632 127.81530 24143 ft 468 kts 15°
2026-04-24 13:08 27.15696 127.82815 24500 ft 471 kts 15°
2026-04-24 13:09 27.21487 127.86389 25129 ft 491 kts 42°
2026-04-24 13:09 27.23879 127.89148 25496 ft 494 kts 44°
2026-04-24 13:09 27.26247 127.91972 25782 ft 499 kts 44°
2026-04-24 13:09 27.28640 127.94827 26007 ft 505 kts 44°
2026-04-24 13:10 27.31070 127.97694 26320 ft 507 kts 44°
2026-04-24 13:10 27.33520 128.00552 26700 ft 508 kts 43°
2026-04-24 13:10 27.35992 128.03414 26986 ft 512 kts 43°
2026-04-24 13:10 27.38481 128.06287 27249 ft 515 kts 43°
2026-04-24 13:11 27.40993 128.09187 27522 ft 519 kts 43°
2026-04-24 13:11 27.43519 128.12110 27798 ft 522 kts 43°
2026-04-24 13:11 27.46057 128.15051 28032 ft 527 kts 43°
2026-04-24 13:11 27.48532 128.18122 28238 ft 533 kts 47°
2026-04-24 13:12 27.51393 128.22139 28644 ft 535 kts 50°
2026-04-24 13:12 27.53640 128.25480 28956 ft 537 kts 51°
2026-04-24 13:12 27.55887 128.28860 29186 ft 540 kts 51°
2026-04-24 13:12 27.58158 128.32251 29400 ft 543 kts 50°
2026-04-24 13:13 27.60457 128.35644 29648 ft 546 kts 50°
2026-04-24 13:13 27.62026 128.37935 29809 ft 548 kts 49°
2026-04-24 13:13 27.64371 128.41336 30060 ft 550 kts 49°
2026-04-24 13:13 27.66716 128.44720 30354 ft 550 kts 49°
2026-04-24 13:14 27.69081 128.48131 30719 ft 548 kts 49°
2026-04-24 13:14 27.71427 128.51516 31081 ft 547 kts 49°
2026-04-24 13:14 27.73734 128.54850 31396 ft 546 kts 49°
2026-04-24 13:14 27.76074 128.58237 31698 ft 547 kts 49°
2026-04-24 13:15 27.78410 128.61622 32017 ft 546 kts 49°
2026-04-24 13:15 27.80739 128.65002 32357 ft 546 kts 49°
2026-04-24 13:15 27.83066 128.68383 32707 ft 544 kts 49°
2026-04-24 13:15 27.85384 128.71755 33079 ft 543 kts 49°
2026-04-24 13:16 27.87699 128.75123 33395 ft 542 kts 49°
2026-04-24 13:16 27.90009 128.78487 33710 ft 542 kts 49°
2026-04-24 13:16 27.92323 128.81857 34054 ft 542 kts 49°
2026-04-24 13:16 27.94629 128.85220 34345 ft 541 kts 49°
2026-04-24 13:17 27.96931 128.88580 34713 ft 538 kts 49°
2026-04-24 13:17 27.99214 128.91917 35027 ft 536 kts 48°
2026-04-24 13:17 28.03816 128.98639 35036 ft 546 kts 49°
2026-04-24 13:18 28.08434 129.05397 35061 ft 555 kts 49°
2026-04-24 13:18 28.13092 129.12229 35041 ft 564 kts 49°
2026-04-24 13:19 28.17906 129.19304 35036 ft 569 kts 49°
2026-04-24 13:19 28.22744 129.26430 35081 ft 571 kts 49°
2026-04-24 13:20 28.27718 129.33763 35031 ft 574 kts 49°
2026-04-24 13:20 28.32591 129.40960 35000 ft 574 kts 49°
2026-04-24 13:21 28.37450 129.48150 34982 ft 574 kts 49°
2026-04-24 13:21 28.42306 129.55345 34983 ft 574 kts 49°
2026-04-24 13:22 28.44886 129.58778 34934 ft 567 kts 37°
2026-04-24 13:22 28.47990 129.61416 34986 ft 553 kts 25°
2026-04-24 13:22 28.54522 129.66004 34976 ft 551 kts 24°
2026-04-24 13:23 28.61054 129.70607 34987 ft 553 kts 25°
2026-04-24 13:23 28.67539 129.75315 34993 ft 553 kts 25°
2026-04-24 13:24 28.73994 129.80067 35050 ft 552 kts 25°
2026-04-24 13:24 28.80441 129.84819 35019 ft 551 kts 25°
2026-04-24 13:25 28.86880 129.89560 35015 ft 551 kts 25°
2026-04-24 13:25 28.93320 129.94305 35034 ft 550 kts 25°
2026-04-24 13:26 28.99751 129.99051 35014 ft 550 kts 25°
2026-04-24 13:26 29.06068 130.03721 34986 ft 549 kts 25°
2026-04-24 13:27 29.12477 130.08466 35013 ft 549 kts 25°
2026-04-24 13:27 29.18840 130.13184 35009 ft 548 kts 25°
2026-04-24 13:28 29.25236 130.17935 35007 ft 548 kts 25°
2026-04-24 13:28 29.31638 130.22694 35003 ft 549 kts 25°
2026-04-24 13:29 29.38043 130.27465 34999 ft 549 kts 25°
2026-04-24 13:29 29.44451 130.32248 35002 ft 549 kts 25°
2026-04-24 13:30 29.50846 130.37028 35009 ft 549 kts 25°
2026-04-24 13:30 29.57244 130.41819 35009 ft 549 kts 25°
2026-04-24 13:31 29.63642 130.46616 35021 ft 550 kts 25°
2026-04-24 13:31 29.70050 130.51428 35005 ft 550 kts 25°
2026-04-24 13:32 29.76450 130.56242 35010 ft 550 kts 25°
2026-04-24 13:32 29.82865 130.61075 35011 ft 552 kts 25°
2026-04-24 13:33 29.89257 130.65898 35015 ft 554 kts 25°
2026-04-24 13:33 29.95712 130.70778 35034 ft 556 kts 25°
2026-04-24 13:34 30.02191 130.75682 35019 ft 558 kts 25°
2026-04-24 13:34 30.08697 130.80620 35016 ft 560 kts 26°
2026-04-24 13:35 30.15219 130.85581 35032 ft 564 kts 25°
2026-04-24 13:35 30.21784 130.90583 35024 ft 566 kts 26°
2026-04-24 13:36 30.28361 130.95606 35009 ft 567 kts 25°
2026-04-24 13:36 30.34865 131.00580 35011 ft 568 kts 25°
2026-04-24 13:37 30.41466 131.05636 35006 ft 569 kts 25°
2026-04-24 13:37 30.48077 131.10707 35021 ft 571 kts 25°
2026-04-24 13:38 30.54709 131.15795 34990 ft 571 kts 25°
2026-04-24 13:38 30.61334 131.20888 35001 ft 571 kts 25°
2026-04-24 13:39 30.67966 131.25996 35024 ft 573 kts 25°
2026-04-24 13:39 30.74566 131.31089 35029 ft 573 kts 25°
2026-04-24 13:40 30.81221 131.36234 35024 ft 575 kts 25°
2026-04-24 13:40 30.87878 131.41389 35034 ft 575 kts 25°
2026-04-24 13:41 30.94539 131.46555 35048 ft 576 kts 25°
2026-04-24 13:41 31.01180 131.51720 35019 ft 567 kts 25°
2026-04-24 13:42 31.07661 131.56775 34999 ft 557 kts 25°
2026-04-24 13:42 31.14078 131.61770 35024 ft 553 kts 25°
2026-04-24 13:43 31.20472 131.66755 35029 ft 551 kts 25°
2026-04-24 13:43 31.26841 131.71737 35089 ft 551 kts 24°
2026-04-24 13:44 31.33255 131.76754 35049 ft 559 kts 24°
2026-04-24 13:44 31.39737 131.81843 35033 ft 562 kts 25°
2026-04-24 13:45 31.46237 131.86960 35049 ft 564 kts 24°
2026-04-24 13:45 31.52747 131.92092 35043 ft 563 kts 24°
2026-04-24 13:46 31.59242 131.97221 35065 ft 562 kts 24°
2026-04-24 13:46 31.65601 132.02251 35043 ft 560 kts 24°
2026-04-24 13:47 31.72053 132.07361 35037 ft 559 kts 24°
2026-04-24 13:47 31.78486 132.12465 35052 ft 557 kts 24°
2026-04-24 13:48 31.83817 132.16701 35048 ft 556 kts 24°
2026-04-24 13:48 31.90210 132.21790 35052 ft 553 kts 24°
2026-04-24 13:49 31.96573 132.26862 35053 ft 552 kts 24°
2026-04-24 13:49 32.02919 132.31930 35049 ft 551 kts 24°
2026-04-24 13:50 32.09265 132.37005 35058 ft 552 kts 24°
2026-04-24 13:50 32.15541 132.42274 35026 ft 557 kts 29°
2026-04-24 13:51 32.21587 132.48013 35083 ft 559 kts 31°
2026-04-24 13:51 32.27611 132.53851 35060 ft 560 kts 30°
2026-04-24 13:52 32.33663 132.59643 35059 ft 560 kts 30°
2026-04-24 13:52 32.39735 132.65413 35054 ft 560 kts 30°
2026-04-24 13:53 32.45810 132.71184 35061 ft 560 kts 30°
2026-04-24 13:53 32.51884 132.76972 35081 ft 561 kts 30°
2026-04-24 13:54 32.57973 132.82790 35067 ft 562 kts 30°
2026-04-24 13:54 32.64054 132.88615 35057 ft 562 kts 30°
2026-04-24 13:55 32.70132 132.94445 35060 ft 562 kts 30°
2026-04-24 13:55 32.76073 133.00210 35065 ft 565 kts 33°
2026-04-24 13:56 32.81578 133.07091 35059 ft 573 kts 42°
2026-04-24 13:56 32.86819 133.14142 34777 ft 575 kts 42°
2026-04-24 13:57 32.89513 133.17669 34229 ft 575 kts 41°
2026-04-24 13:57 32.92226 133.21170 33473 ft 576 kts 41°
2026-04-24 13:57 32.94965 133.24657 32730 ft 575 kts 39°
2026-04-24 13:57 32.97857 133.27899 32109 ft 568 kts 34°
2026-04-24 13:58 33.00823 133.30961 31413 ft 565 kts 33°
2026-04-24 13:58 33.03836 133.33969 30721 ft 564 kts 33°
2026-04-24 13:58 33.06850 133.36967 29901 ft 566 kts 33°
2026-04-24 13:58 33.09856 133.39990 28983 ft 565 kts 34°
2026-04-24 13:59 33.12837 133.43032 28115 ft 564 kts 34°
2026-04-24 13:59 33.15797 133.46086 27252 ft 561 kts 35°
2026-04-24 13:59 33.18739 133.49141 26331 ft 559 kts 35°
2026-04-24 13:59 33.21668 133.52190 25380 ft 558 kts 35°
2026-04-24 14:00 33.24592 133.55233 24532 ft 554 kts 36°
2026-04-24 14:00 33.27473 133.58234 23969 ft 544 kts 36°
2026-04-24 14:00 33.30292 133.61173 23576 ft 531 kts 36°
2026-04-24 14:00 33.32999 133.63993 23067 ft 517 kts 36°
2026-04-24 14:01 33.35736 133.66839 22247 ft 512 kts 36°
2026-04-24 14:01 33.38378 133.69587 21537 ft 506 kts 37°
2026-04-24 14:01 33.41013 133.72333 20915 ft 498 kts 37°
2026-04-24 14:01 33.43592 133.75027 20401 ft 488 kts 38°
2026-04-24 14:02 33.46121 133.77671 19894 ft 477 kts 38°
2026-04-24 14:02 33.48599 133.80262 19251 ft 471 kts 38°
2026-04-24 14:02 33.51048 133.82823 18617 ft 465 kts 39°
2026-04-24 14:02 33.53487 133.85340 17877 ft 460 kts 36°
2026-04-24 14:03 33.56136 133.87423 17183 ft 451 kts 24°
2026-04-24 14:03 33.59029 133.88745 16491 ft 441 kts 12°
2026-04-24 14:03 33.62012 133.89390 15780 ft 432 kts
2026-04-24 14:03 33.64986 133.89609 15293 ft 423 kts
2026-04-24 14:04 33.67893 133.89890 14890 ft 416 kts
2026-04-24 14:04 33.70761 133.90209 14462 ft 413 kts
2026-04-24 14:04 33.73634 133.90537 14113 ft 418 kts
2026-04-24 14:04 33.76540 133.90870 13619 ft 419 kts
2026-04-24 14:05 33.79415 133.91178 13294 ft 409 kts
2026-04-24 14:05 33.82266 133.91505 12766 ft 411 kts
2026-04-24 14:05 33.85094 133.91835 12381 ft 407 kts
2026-04-24 14:05 33.87899 133.92153 11965 ft 403 kts
2026-04-24 14:06 33.90636 133.92459 11574 ft 398 kts
2026-04-24 14:06 33.93401 133.92768 11247 ft 388 kts
2026-04-24 14:06 33.96017 133.93064 10979 ft 375 kts
2026-04-24 14:06 33.98555 133.93353 10820 ft 359 kts
2026-04-24 14:07 34.00954 133.93624 10670 ft 344 kts
2026-04-24 14:07 34.03294 133.93888 10532 ft 331 kts
2026-04-24 14:07 34.05575 133.94145 10389 ft 319 kts
2026-04-24 14:07 34.07717 133.94387 10284 ft 308 kts
2026-04-24 14:08 34.09809 133.94624 10147 ft 297 kts
2026-04-24 14:08 34.11824 133.94854 10045 ft 286 kts
2026-04-24 14:08 34.13768 133.95074 10022 ft 274 kts
2026-04-24 14:08 34.15646 133.95285 9840 ft 267 kts
2026-04-24 14:09 34.17483 133.95493 9726 ft 263 kts
2026-04-24 14:09 34.19303 133.95699 9633 ft 262 kts
2026-04-24 14:09 34.21121 133.95905 9528 ft 263 kts
2026-04-24 14:09 34.22955 133.96113 9426 ft 266 kts
2026-04-24 14:10 34.24804 133.96323 9322 ft 268 kts
2026-04-24 14:10 34.26655 133.96534 9207 ft 266 kts
2026-04-24 14:10 34.28501 133.96742 9097 ft 266 kts
2026-04-24 14:10 34.30342 133.96952 8993 ft 265 kts
2026-04-24 14:11 34.32175 133.97161 8883 ft 264 kts
2026-04-24 14:11 34.34002 133.97370 8793 ft 264 kts
2026-04-24 14:11 34.37647 133.97842 8572 ft 262 kts 17°
2026-04-24 14:12 34.39312 133.98686 8471 ft 259 kts 28°
2026-04-24 14:12 34.40939 133.99631 8372 ft 260 kts 27°
2026-04-24 14:12 34.42502 134.00503 8271 ft 260 kts 26°
2026-04-24 14:12 34.44152 134.01411 8168 ft 261 kts 26°
2026-04-24 14:13 34.45807 134.02320 8076 ft 261 kts 26°
2026-04-24 14:13 34.47462 134.03227 7971 ft 262 kts 26°
2026-04-24 14:13 34.49123 134.04138 7869 ft 262 kts 26°
2026-04-24 14:13 34.50784 134.05049 7769 ft 262 kts 27°
2026-04-24 14:14 34.52250 134.06304 7642 ft 259 kts 52°
2026-04-24 14:14 34.53108 134.08197 7568 ft 256 kts 70°
2026-04-24 14:14 34.54007 134.12372 7376 ft 256 kts 77°
2026-04-24 14:15 34.54398 134.14481 7274 ft 256 kts 77°
2026-04-24 14:15 34.54792 134.16591 7168 ft 256 kts 77°
2026-04-24 14:15 34.55191 134.18700 7063 ft 256 kts 76°
2026-04-24 14:15 34.55593 134.20807 6968 ft 256 kts 76°
2026-04-24 14:16 34.55994 134.22886 6862 ft 256 kts 76°
2026-04-24 14:16 34.56401 134.24985 6770 ft 256 kts 76°
2026-04-24 14:16 34.56810 134.27086 6669 ft 256 kts 76°
2026-04-24 14:17 34.57628 134.31277 6461 ft 255 kts 76°
2026-04-24 14:17 34.58037 134.33370 6357 ft 255 kts 76°
2026-04-24 14:17 34.58852 134.37545 6155 ft 254 kts 76°
2026-04-24 14:18 34.59259 134.39626 6058 ft 253 kts 76°
2026-04-24 14:18 34.59664 134.41705 5957 ft 252 kts 76°
2026-04-24 14:18 34.60066 134.43767 5851 ft 250 kts 76°
2026-04-24 14:18 34.60466 134.45819 5751 ft 249 kts 76°
2026-04-24 14:19 34.60731 134.47175 5693 ft 249 kts 76°
2026-04-24 14:19 34.61260 134.49898 5562 ft 247 kts 76°
2026-04-24 14:19 34.61656 134.51931 5463 ft 247 kts 76°
2026-04-24 14:19 34.62049 134.53955 5372 ft 246 kts 76°
2026-04-24 14:20 34.62440 134.55974 5272 ft 246 kts 76°
2026-04-24 14:20 34.62826 134.57962 5180 ft 245 kts 76°
2026-04-24 14:20 34.63220 134.59998 5082 ft 244 kts 76°
2026-04-24 14:20 34.63608 134.62005 4991 ft 244 kts 76°
2026-04-24 14:21 34.63990 134.63982 4905 ft 244 kts 76°
2026-04-24 14:21 34.64377 134.65985 4796 ft 244 kts 76°
2026-04-24 14:21 34.64765 134.67992 4689 ft 244 kts 76°
2026-04-24 14:21 34.65152 134.70002 4602 ft 244 kts 76°
2026-04-24 14:22 34.65545 134.72040 4502 ft 244 kts 76°
2026-04-24 14:22 34.65931 134.74048 4394 ft 244 kts 76°
2026-04-24 14:22 34.65976 134.78079 4218 ft 246 kts 104°
2026-04-24 14:23 34.65475 134.80063 4116 ft 245 kts 104°
2026-04-24 14:23 34.64974 134.82037 4013 ft 244 kts 104°
2026-04-24 14:23 34.64475 134.84009 3921 ft 243 kts 104°
2026-04-24 14:23 34.63986 134.85955 3818 ft 237 kts 103°
2026-04-24 14:24 34.63513 134.87840 3717 ft 229 kts 103°
2026-04-24 14:24 34.63060 134.89658 3621 ft 221 kts 102°
2026-04-24 14:24 34.62623 134.91408 3533 ft 213 kts 102°
2026-04-24 14:24 34.62203 134.93091 3451 ft 204 kts 102°
2026-04-24 14:25 34.61933 134.94172 3405 ft 200 kts 102°
2026-04-24 14:25 34.61403 134.96321 3316 ft 199 kts 98°
2026-04-24 14:25 34.61366 134.97966 3246 ft 195 kts 78°
2026-04-24 14:25 34.61524 134.99612 3176 ft 199 kts 82°
2026-04-24 14:26 34.61631 135.01164 3078 ft 211 kts 83°
2026-04-24 14:26 34.61756 135.02899 2965 ft 202 kts 82°
2026-04-24 14:26 34.61883 135.04583 2718 ft 196 kts 81°
2026-04-24 14:26 34.62008 135.06203 2450 ft 188 kts 81°
2026-04-24 14:27 34.62125 135.07719 2207 ft 172 kts 81°
2026-04-24 14:27 34.62230 135.09085 1994 ft 154 kts 80°
2026-04-24 14:27 34.62326 135.10322 1761 ft 142 kts 78°
2026-04-24 14:27 34.62418 135.11491 1596 ft 138 kts 79°
2026-04-24 14:28 34.62508 135.12641 1404 ft 139 kts 81°
2026-04-24 14:28 34.62600 135.13828 1214 ft 143 kts 79°
2026-04-24 14:28 34.62693 135.15013 1014 ft 141 kts 82°
2026-04-24 14:28 34.62783 135.16196 834 ft 140 kts 81°
2026-04-24 14:29 34.62876 135.17369 651 ft 140 kts 80°
2026-04-24 14:29 34.62967 135.18527 479 ft 137 kts 81°
2026-04-24 14:29 34.63058 135.19700 300 ft 138 kts 82°
2026-04-24 14:29 34.63154 135.20868 100 ft 140 kts 83°
2026-04-24 14:30 34.63214 135.21639 33 ft 133 kts 83°
2026-04-24 14:30 34.63314 135.22880 29 ft 83 kts 85°
2026-04-24 14:30 34.63351 135.23386 26 ft 44 kts 84°
2026-04-24 14:30 34.63381 135.23670 26 ft 26 kts 69°
2026-04-24 14:31 34.63490 135.23711 28 ft 16 kts 349°
2026-04-24 14:31 34.63532 135.23602 26 ft 15 kts 266°
2026-04-24 14:31 34.63523 135.23475 31 ft 15 kts 265°
2026-04-24 14:31 34.63514 135.23354 26 ft 14 kts 265°
2026-04-24 14:32 34.63505 135.23255 29 ft 9 kts 263°
2026-04-24 14:32 34.63499 135.23178 26 ft 9 kts 267°
2026-04-24 14:32 34.63493 135.23103 30 ft 9 kts 263°
2026-04-24 14:32 34.63487 135.23029 26 ft 9 kts 265°
2026-04-24 14:33 34.63484 135.22991 28 ft 0 kts 265°
2026-04-24 14:33 34.63484 135.22988 28 ft 2 kts 266°
2026-04-24 14:33 34.63494 135.22965 26 ft 4 kts 314°
2026-04-24 14:33 34.63516 135.22943 29 ft 4 kts 341°
2026-04-24 14:34 34.63545 135.22931 27 ft 5 kts
2026-04-24 14:34 34.63577 135.22931 29 ft 5 kts 356°
2026-04-24 14:34 34.63597 135.22929 28 ft 0 kts 354°
2026-04-24 14:34 34.63599 135.22928 28 ft 0 kts 354°